Zurück zum Katalog

FENGYUN 1C DEB

AktivSSO
NORAD 30127·DEBRIS·🇨🇳 China

Gestartet May 10, 1999 von Taiyuan Satellite Launch Center

Loading…

Nächste Überflüge (nächste 24 Stunden)

TLE

AktuellSource: Space-Track

Epoche: Sep 14, 2026, 12:50 UTC

1 30127U 99025SG  26257.53536534  .00004137  00000-0  12330-2 0  9990
2 30127  98.1924 107.5987 0082160 329.2152  30.4233 14.41630075 12049

Verfolge FENGYUN 1C DEB in Echtzeit mit AllMySat

Download on the App Store